| time (UTC) | temp C | wind direction | speed KPH | gust KPH | rain 1hr cm | rain 24hr cm | rain mn cm | humidity % | barometer mb |
| 20260510173105 | 33 | 167 | 17.7 | 35.4 | 0.00 | 0.00 | 0.00 | 54 | 1011.8 |
| 20260510171606 | 33 | 139 | 16.1 | 27.4 | 0.00 | 0.00 | 0.00 | 55 | 1011.8 |
| 20260510170056 | 33 | 132 | 20.9 | 30.6 | 0.00 | 0.00 | 0.00 | 55 | 1011.9 |
| 20260510164600 | 33 | 117 | 20.9 | 30.6 | 0.00 | 0.00 | 0.00 | 57 | 1012.0 |
| 20260510163050 | 32 | 133 | 16.1 | 24.1 | 0.00 | 0.00 | 0.00 | 60 | 1012.0 |
| 20260510161549 | 32 | 111 | 9.7 | 24.1 | 0.00 | 0.00 | 0.00 | 60 | 1012.1 |
| 20260510160049 | 32 | 111 | 19.3 | 30.6 | 0.00 | 0.00 | 0.00 | 61 | 1012.0 |
| 20260510154553 | 32 | 168 | 19.3 | 27.4 | 0.00 | 0.00 | 0.00 | 61 | 1012.1 |
| 20260510153043 | 32 | 140 | 20.9 | 32.2 | 0.00 | 0.00 | 0.00 | 62 | 1012.1 |
| 20260510150054 | 31 | 128 | 20.9 | 32.2 | 0.00 | 0.00 | 0.00 | 66 | 1012.3 |
| 20260510144537 | 30 | 142 | 19.3 | 32.2 | 0.00 | 0.00 | 0.00 | 68 | 1012.3 |
| 20260510143038 | 30 | 133 | 20.9 | 37.0 | 0.00 | 0.00 | 0.00 | 68 | 1012.2 |
| 20260510141532 | 30 | 156 | 17.7 | 37.0 | 0.00 | 0.00 | 0.00 | 71 | 1012.0 |
| 20260510140028 | 30 | 146 | 19.3 | 29.0 | 0.00 | 0.00 | 0.00 | 73 | 1012.1 |
| 20260510134525 | 28 | 155 | 24.1 | 37.0 | 0.00 | 0.00 | 0.00 | 75 | 1011.8 |
| 20260510133022 | 28 | 155 | 20.9 | 35.4 | 0.00 | 0.00 | 0.00 | 77 | 1011.7 |
| 20260510131518 | 27 | 138 | 17.7 | 33.8 | 0.00 | 0.00 | 0.00 | 80 | 1011.5 |
| 20260510130016 | 27 | 134 | 19.3 | 29.0 | 0.00 | 0.00 | 0.00 | 81 | 1011.5 |
| 20260510124525 | 26 | 150 | 16.1 | 25.7 | 0.00 | 0.00 | 0.00 | 83 | 1011.3 |
| 20260510123010 | 26 | 141 | 16.1 | 24.1 | 0.00 | 0.00 | 0.00 | 84 | 1011.3 |
| 20260510121507 | 26 | 116 | 14.5 | 24.1 | 0.00 | 0.00 | 0.00 | 85 | 1011.0 |
| 20260510114601 | 26 | 130 | 20.9 | 29.0 | 0.00 | 0.00 | 0.00 | 85 | 1010.6 |
| 20260510113057 | 26 | 146 | 16.1 | 25.7 | 0.00 | 0.00 | 0.00 | 85 | 1010.6 |
| 20260510111602 | 26 | 134 | 17.7 | 27.4 | 0.00 | 0.00 | 0.00 | 85 | 1010.4 |
| 20260510110051 | 26 | 167 | 14.5 | 24.1 | 0.00 | 0.00 | 0.00 | 85 | 1010.1 |
| 20260510104550 | 26 | 119 | 14.5 | 24.1 | 0.00 | 0.00 | 0.00 | 84 | 1009.8 |
| 20260510103052 | 26 | 156 | 14.5 | 22.5 | 0.00 | 0.00 | 0.00 | 84 | 1009.9 |
| 20260510101547 | 26 | 89 | 11.3 | 24.1 | 0.00 | 0.00 | 0.00 | 84 | 1009.8 |
| 20260510100050 | 26 | 135 | 17.7 | 25.7 | 0.00 | 0.00 | 0.00 | 83 | 1009.7 |
| 20260510094555 | 26 | 136 | 12.9 | 24.1 | 0.00 | 0.00 | 0.00 | 83 | 1009.7 |
| 20260510093054 | 26 | 136 | 12.9 | 27.4 | 0.00 | 0.00 | 0.00 | 83 | 1009.3 |
| 20260510091544 | 26 | 148 | 17.7 | 30.6 | 0.00 | 0.00 | 0.00 | 83 | 1009.1 |
| 20260510084539 | 27 | 137 | 19.3 | 30.6 | 0.00 | 0.00 | 0.00 | 82 | 1009.1 |
| 20260510083051 | 27 | 130 | 22.5 | 30.6 | 0.00 | 0.00 | 0.00 | 81 | 1008.9 |
| 20260510081537 | 27 | 111 | 19.3 | 30.6 | 0.00 | 0.00 | 0.00 | 81 | 1009.0 |
| 20260510080032 | 27 | 142 | 16.1 | 27.4 | 0.00 | 0.00 | 0.00 | 80 | 1009.1 |
| 20260510074531 | 27 | 134 | 16.1 | 25.7 | 0.00 | 0.00 | 0.00 | 80 | 1009.1 |
| 20260510073028 | 27 | 171 | 16.1 | 25.7 | 0.00 | 0.00 | 0.00 | 79 | 1009.4 |
| 20260510071533 | 27 | 139 | 14.5 | 25.7 | 0.00 | 0.00 | 0.00 | 78 | 1009.6 |
| 20260510070025 | 28 | 129 | 22.5 | 32.2 | 0.00 | 0.00 | 0.00 | 78 | 1009.5 |
| 20260510064521 | 28 | 136 | 19.3 | 30.6 | 0.00 | 0.00 | 0.00 | 77 | 1009.8 |
| 20260510063019 | 28 | 138 | 16.1 | 33.8 | 0.00 | 0.00 | 0.00 | 76 | 1009.9 |
| 20260510061516 | 28 | 138 | 16.1 | 27.4 | 0.00 | 0.00 | 0.00 | 76 | 1010.2 |
| 20260510060023 | 28 | 94 | 17.7 | 25.7 | 0.00 | 0.00 | 0.00 | 75 | 1010.1 |
| 20260510054513 | 29 | 142 | 17.7 | 29.0 | 0.00 | 0.00 | 0.00 | 74 | 1010.4 |
| 20260510053012 | 29 | 119 | 16.1 | 29.0 | 0.00 | 0.00 | 0.00 | 73 | 1010.5 |
| 20260510051513 | 30 | 144 | 17.7 | 29.0 | 0.00 | 0.00 | 0.00 | 72 | 1010.4 |
| 20260510050011 | 30 | 120 | 14.5 | 22.5 | 0.00 | 0.00 | 0.00 | 71 | 1010.5 |
| 20260510044510 | 30 | 135 | 19.3 | 29.0 | 0.00 | 0.00 | 0.00 | 71 | 1010.6 |
| 20260510043012 | 30 | 148 | 17.7 | 29.0 | 0.00 | 0.00 | 0.00 | 70 | 1010.3 |
| 20260510041508 | 31 | 136 | 20.9 | 30.6 | 0.00 | 0.00 | 0.00 | 68 | 1010.4 |
| 20260510040007 | 31 | 121 | 20.9 | 27.4 | 0.00 | 0.00 | 0.00 | 67 | 1010.2 |
| 20260510034513 | 31 | 113 | 11.3 | 24.1 | 0.00 | 0.00 | 0.00 | 65 | 1010.3 |
| 20260510033007 | 31 | 116 | 19.3 | 30.6 | 0.00 | 0.00 | 0.00 | 64 | 1010.0 |
| 20260510031509 | 31 | 38 | 9.7 | 17.7 | 0.00 | 0.00 | 0.00 | 63 | 1009.8 |
| 20260510030013 | 31 | 165 | 6.4 | 19.3 | 0.00 | 0.00 | 0.00 | 62 | 1009.6 |
| 20260510024504 | 31 | 122 | 11.3 | 19.3 | 0.00 | 0.00 | 0.00 | 61 | 1009.6 |
| 20260510023003 | 32 | 128 | 6.4 | 17.7 | 0.00 | 0.00 | 0.00 | 61 | 1009.3 |
| 20260510021502 | 32 | 49 | 16.1 | 25.7 | 0.00 | 0.00 | 0.00 | 61 | 1009.0 |
| 20260510020003 | 32 | 51 | 17.7 | 22.5 | 0.00 | 0.00 | 0.00 | 62 | 1008.8 |
| 20260510013001 | 32 | 56 | 20.9 | 29.0 | 0.00 | 0.00 | 0.00 | 61 | 1008.5 |
| 20260510011501 | 32 | 54 | 19.3 | 29.0 | 0.00 | 0.00 | 0.00 | 62 | 1008.0 |
| 20260510010104 | 32 | 15 | 11.3 | 24.1 | 0.00 | 0.00 | 0.00 | 61 | 1007.7 |
| 20260510004600 | 32 | 26 | 17.7 | 24.1 | 0.00 | 0.00 | 0.00 | 60 | 1007.3 |
| 20260510003101 | 33 | 360 | 19.3 | 29.0 | 0.00 | 0.00 | 0.00 | 58 | 1006.9 |
| 20260510001558 | 33 | 31 | 17.7 | 27.4 | 0.00 | 0.00 | 0.00 | 58 | 1006.7 |
| 20260510000058 | 34 | 44 | 17.7 | 30.6 | 0.00 | 0.00 | 0.00 | 56 | 1006.5 |
| 20260509234557 | 34 | 49 | 14.5 | 29.0 | 0.00 | 0.00 | 0.00 | 54 | 1006.1 |
| 20260509233057 | 35 | 16 | 22.5 | 35.4 | 0.00 | 0.00 | 0.00 | 52 | 1005.7 |
| 20260509231558 | 38 | 204 | 6.4 | 17.7 | 0.00 | 0.00 | 0.00 | 39 | 1005.5 |
| 20260509230059 | 38 | 132 | 6.4 | 19.3 | 0.00 | 0.00 | 0.00 | 39 | 1005.3 |
| 20260509224558 | 38 | 161 | 9.7 | 20.9 | 0.00 | 0.00 | 0.00 | 38 | 1005.1 |
| 20260509223053 | 38 | 216 | 3.2 | 16.1 | 0.00 | 0.00 | 0.00 | 39 | 1005.2 |
| 20260509221552 | 38 | 213 | 6.4 | 19.3 | 0.00 | 0.00 | 0.00 | 39 | 1005.3 |
| 20260509220054 | 38 | 146 | 11.3 | 22.5 | 0.00 | 0.00 | 0.00 | 38 | 1005.1 |
| 20260509214551 | 38 | 208 | 11.3 | 17.7 | 0.00 | 0.00 | 0.00 | 38 | 1005.2 |
| 20260509213111 | 38 | 200 | 4.8 | 22.5 | 0.00 | 0.00 | 0.00 | 38 | 1005.2 |
| 20260509211549 | 38 | 207 | 0.0 | 25.7 | 0.00 | 0.00 | 0.00 | 38 | 1005.2 |
| 20260509210100 | 38 | 150 | 6.4 | 20.9 | 0.00 | 0.00 | 0.00 | 39 | 1005.4 |
| 20260509204544 | 38 | 261 | 3.2 | 14.5 | 0.00 | 0.00 | 0.00 | 41 | 1005.6 |
| 20260509203043 | 38 | 115 | 11.3 | 19.3 | 0.00 | 0.00 | 0.00 | 40 | 1005.6 |
| 20260509201540 | 38 | 172 | 11.3 | 16.1 | 0.00 | 0.00 | 0.00 | 40 | 1005.9 |
| 20260509200038 | 38 | 107 | 14.5 | 22.5 | 0.00 | 0.00 | 0.00 | 41 | 1006.0 |
| 20260509194534 | 37 | 112 | 3.2 | 14.5 | 0.00 | 0.00 | 0.00 | 42 | 1006.1 |
| 20260509193030 | 37 | 117 | 14.5 | 22.5 | 0.00 | 0.00 | 0.00 | 43 | 1006.4 |
| 20260509191525 | 37 | 131 | 11.3 | 22.5 | 0.00 | 0.00 | 0.00 | 43 | 1006.7 |
| 20260509190025 | 37 | 155 | 12.9 | 27.4 | 0.00 | 0.00 | 0.00 | 44 | 1007.1 |
| 20260509184518 | 37 | 82 | 17.7 | 25.7 | 0.00 | 0.00 | 0.00 | 44 | 1007.2 |
| 20260509183116 | 36 | 148 | 17.7 | 30.6 | 0.00 | 0.00 | 0.00 | 44 | 1007.4 |
| 20260509181512 | 36 | 111 | 16.1 | 25.7 | 0.00 | 0.00 | 0.00 | 45 | 1007.6 |
| 20260509180010 | 36 | 119 | 11.3 | 27.4 | 0.00 | 0.00 | 0.00 | 47 | 1007.9 |
| 20260509174505 | 35 | 119 | 12.9 | 27.4 | 0.00 | 0.00 | 0.00 | 48 | 1008.2 |